Flag for U.S.A. Weather past 2 weeks in New Orleans, Louisiana, U.S.A.

Now
84 °F

Sunny.


Feels Like: 91 °F
Forecast: 76 / 88 °F
Wind: 12 mph from Southwest

Location: Lakefront Airport

Current Time: Jul 25, 2014 at 8:40:59 PM

Latest Report: Jul 25, 2014 at 7:53 PM


Visibility: 10 mi

Pressure: 29.97 "Hg

Humidity: 72%

Dew point: 74 °F

Location of New OrleansLocation

Historic Weather in New Orleans — Graph

°F

New Orleans temperature yesterday

Maximum temperature yesterday: 88 °F (at 2:53 PM)
Minimum temperature yesterday: 76 °F (at 3:53 AM)
Average temperature yesterday: 82 °F

Past Weeks' High & Low Weather Summary

 TemperatureHumidityPressure
High90 °F (Jul 13, 4:53 PM)97% (Jul 18, 5:00 PM)30.15 "Hg (Jul 18, 5:00 PM)
Low74 °F (Jul 18, 5:00 PM)46% (Jul 16, 6:53 PM)29.89 "Hg (Jul 15, 5:53 PM)
Average82 °F76%30.00 "Hg
* Reported Jul 10 6:53 PM — Jul 25 6:53 PM, New Orleans, Weather by CustomWeather, © 2014

Note: Actual official high and low records may vary slightly from our data, if they occured in-between our weather recording intervals... More about our weather records

Advertising

New Orleans weather history for previous 24 hours

 ConditionsComfort  
Time TempWeatherWind HumidityBarometerVisibility
6:53 PM
Jul 25
85 °FSunny.12 mph65%29.96 "Hg10 mi
5:53 PM85 °FSunny.10 mph63%29.96 "Hg10 mi
4:53 PM88 °FPartly sunny.No wind57%29.96 "Hg10 mi
3:53 PM87 °FOvercast.8 mph61%29.96 "Hg10 mi
2:53 PM87 °FSunny.5 mph67%29.98 "Hg8 mi
1:53 PM88 °FSunny.6 mph67%30.00 "Hg9 mi
12:53 PM89 °FSunny.7 mph70%30.02 "Hg8 mi
11:53 AM86 °FSunny.7 mph75%30.03 "Hg8 mi
10:53 AM85 °FSunny.9 mph77%30.03 "Hg7 mi
9:53 AM84 °FPassing clouds.10 mph80%30.04 "Hg9 mi
8:53 AM83 °FPassing clouds.10 mph79%30.03 "Hg7 mi
7:53 AM82 °FPassing clouds.10 mph82%30.01 "Hg10 mi
6:53 AM82 °FClear.10 mph79%30.00 "Hg5 mi
5:53 AM82 °FClear.12 mph79%29.98 "Hg8 mi
4:53 AM81 °FPassing clouds.13 mph82%29.98 "Hg7 mi
3:53 AM81 °FClear.9 mph82%29.96 "Hg7 mi
2:53 AM82 °FPassing clouds.5 mph79%29.96 "Hg9 mi
1:53 AM82 °FOvercast.5 mph79%29.97 "Hg10 mi
12:53 AM81 °FClear.6 mph79%29.96 "Hg10 mi
11:53 PM
Jul 24
82 °FClear.8 mph77%29.98 "Hg10 mi
10:53 PM82 °FClear.7 mph77%29.97 "Hg10 mi
9:53 PM82 °FClear.8 mph77%29.96 "Hg10 mi
8:53 PM86 °FSunny.No wind57%29.95 "Hg10 mi
Weather by CustomWeather, © 2014

See weather overviewHow to use our weather pages